Other Public Products
Issued by NWS Charleston, SC

Current Version | Previous Version | Graphics & Text | Print | Product List | Glossary Off
Versions: 1 2 3 4 5 6 7 8 9 10 11 12 13 14 15 16 17 18 19 20 21 22 23 24 25 26 27 28 29 30 31 32 33 34 35 36 37 38 39 40 41 42 43 44 45 46 47 48 49 50

000
FPUS82 KCHS 180927
OPUCHS

TEST...KCHS/KSAV Gateway Observations...TEST
National Weather Service Charleston SC
500 AM EDT FRI AUG 18 2017

NOTE: "fair" indicates few or no clouds below 12,000 feet with no
significant weather and/or obstructions to visibility.

SCZ050-WAZ558-NCZ071-TXZ119-213-PAZ071-DCZ001-FLZ074-172-MI076-
NYZ176-178-MAZ016-IL014-TNZ027-NJZ106-GAZ044-MD014-181000-

...Gateway Observations for Charleston International...

CITY           SKY/WX    TMP DP  RH WIND       PRES   REMARKS
Chas Airport   PTCLDY    81  78  91 SW7       29.95S
Seattle        PTCLDY    59  53  80 W3        30.16S
Charlotte      CLEAR     77  75  93 S5        29.94R
Dallas DFW     CLOUDY    78  72  81 S3        29.97S
Dallas Love    CLOUDY    78  71  79 SE6       29.98S
Philladelphia  CLOUDY    76  69  79 SW6       29.88F
Wash National  MOCLDY    78  76  93 S9        29.86F
Baltimore      CLOUDY    75  74  96 CALM      29.85F
Miami          PTCLDY    85  74  69 E6        29.98F HX  92
Detroit        PTCLDY    70  66  87 SW12      29.72F
Newark         CLOUDY    76  70  82 S6        29.89F
Laguardia      CLOUDY    76  73  91 S8        29.89F
J F K          CLOUDY    75  75 100 S12       29.91F
Boston Logan   MOCLDY    65  59  81 SE3       29.96F
Ft. Lauderdale PTCLDY    83  76  79 SE7       29.98S HX  91
Chicago O`Hare PTCLDY    69  61  75 W12       29.78R
Chicago Midway PTCLDY    70  64  81 W10       29.79R
Houston Bush   PTCLDY    81  76  84 S5        30.00F
Houston Hobby  CLEAR     81  76  84 CALM      30.00S
Nashville      CLOUDY    76  73  91 CALM      29.94R
Atlanta        CLEAR     77  71  82 W8        30.00S

$$

GAZ044-118-TXZ119-213-NCZ071-DCZ001-MDZ014-506-PAZ021-071-NJZ106-
NYZ176-178-MAZ106-OHZ011-021-055-MIZ076-KYZ091-ILZ014-INZ047-
MNZ060-ONZ431-181000-

...Gateway Observations for Savannah International...

CITY           SKY/WX    TMP DP  RH WIND       PRES   REMARKS
Savannah Arpt  CLEAR     78  75  90 W5        29.97S
Atlanta        CLEAR     77  71  82 W8        30.00S
Charlotte      CLEAR     77  75  93 S5        29.94R
Dallas DFW     CLOUDY    78  72  81 S3        29.97S
Houston Bush   PTCLDY    81  76  84 S5        30.00F
Wash National  MOCLDY    78  76  93 S9        29.86F
Wash Dulles    CLOUDY    76  75  97 S6        29.86F
Baltimore      CLOUDY    75  74  96 CALM      29.85F
Philadelphia   CLOUDY    76  69  79 SW6       29.88F
Newark         CLOUDY    76  70  82 S6        29.89F
Laguardia      CLOUDY    76  73  91 S8        29.89F
J F K          CLOUDY    75  75 100 S12       29.91F
Boston         MOCLDY    65  59  81 SE3       29.96F
Pittsburg      HVY RAIN  72  72 100 S5        29.85R VSB 1
Akron          CLOUDY    73  69  87 SW7       29.82S
Cleveland      PTCLDY    74  70  87 S8        29.79S
Cincinnati     CLOUDY    74  74 100 SW6       29.86R
Columbus       CLOUDY    72  72 100 SW6       29.83R FOG
Detroit        PTCLDY    70  66  87 SW12      29.72F
Chicago O`Hare PTCLDY    69  61  75 W12       29.78R
Minneapolis    CLEAR     61  57  87 CALM      29.86S
Indianapolis   PTCLDY    68  66  93 W9        29.84R
Toronto Canada CLEAR     70  68  94 SE5       29.68S

$$




USA.gov is the U.S. government's official web portal to all federal, state and local government web resources and services.